Killeen/Ft Hood, TX

12:45 PM CDT on March 29, 2017 (GMT -0500)
Hood Army Air Field

Weather History for KHLR - December, 2012

Change the Weather History Date:

Tuesday, December 11, 2012

  Actual Average Record
Temperature  
Mean Temperature 40 °F -  
Max Temperature 54 °F 60 °F 86 °F (1996)
Min Temperature 27 °F 40 °F 26 °F (2000)
Degree Days  
Heating Degree Days 24    
Moisture  
Dew Point 15 °F    
Average Humidity 39    
Maximum Humidity 66    
Minimum Humidity 17    
Precipitation  
Precipitation 0.00 in - - ()
Sea Level Pressure  
Sea Level Pressure 30.23 in    
Wind  
Wind Speed 3 mph (North)    
Max Wind Speed 7 mph    
Max Gust Speed -    
Visibility 10 miles    
Events      
Averages and records for this station are not official NWS values.
T = Trace of Precipitation, MM = Missing Value Source: NWS Daily Summary

Daily Weather History Graph

Daily Weather History Graph

Search for Another Location

Airport or City:

Trip Planner

Search our weather history database for the weather conditions in past years. The results will help you decide how hot, cold, wet, or windy it might be!

Date:

Astronomy

Dec. 11, 2012 Rise Set
Actual Time 7:19 AM CST 5:29 PM CST
Civil Twilight 6:52 AM CST 5:55 PM CST
Nautical Twilight 6:22 AM CST 6:26 PM CST
Astronomical Twilight 5:53 AM CST 6:55 PM CST
Moon 5:19 AM CST (12/11) 4:06 PM CST (12/11)
Length of Visible Light 11h 02m
Length of Day
10h 09m
Waning Crescent, 4% of the Moon is Illuminated
Dec 11
Waning Crescent
Dec 13
New
Dec 19
First Quarter
Dec 28
Full
Jan 4
Last Quarter

Hourly Weather History & Observations

Time (CST) Temp. Windchill Dew Point Humidity Pressure Visibility Wind Dir Wind Speed Gust Speed Precip Events Conditions
12:56 AM 34.0 °F 28.8 °F 16.0 °F 48% 30.12 in 9.0 mi WNW 5.8 mph - N/A   Clear
1:56 AM 33.1 °F 28.7 °F 15.1 °F 48% 30.10 in 10.0 mi NW 4.6 mph - N/A   Clear
2:56 AM 30.0 °F - 16.0 °F 56% 30.10 in 10.0 mi Calm Calm - N/A   Clear
3:56 AM 32.0 °F - 17.1 °F 54% 30.11 in 10.0 mi Calm Calm - N/A   Clear
4:56 AM 30.0 °F - 17.1 °F 59% 30.11 in 10.0 mi Calm Calm - N/A   Clear
5:56 AM 28.0 °F - 18.0 °F 66% 30.13 in 10.0 mi Calm Calm - N/A   Clear
6:56 AM 27.0 °F - 17.1 °F 66% 30.15 in 10.0 mi Calm Calm - N/A   Clear
7:56 AM 30.9 °F - 18.0 °F 59% 30.29 in 10.0 mi Calm Calm - N/A   Clear
8:56 AM 37.9 °F - 19.9 °F 48% 30.30 in 10.0 mi Calm Calm - N/A   Clear
9:56 AM 42.1 °F 39.2 °F 18.0 °F 38% 30.31 in 10.0 mi NE 4.6 mph - N/A   Clear
10:56 AM 46.0 °F - 17.1 °F 31% 30.31 in 10.0 mi Calm Calm - N/A   Clear
11:56 AM 48.9 °F - 16.0 °F 27% 30.29 in 10.0 mi Variable 4.6 mph - N/A   Clear
12:56 PM 51.1 °F - 15.1 °F 24% 30.25 in 10.0 mi Variable 3.5 mph - N/A   Clear
1:56 PM 53.1 °F - 12.0 °F 20% 30.23 in 10.0 mi Variable 3.5 mph - N/A   Clear
2:56 PM 54.0 °F - 9.0 °F 17% 30.22 in 10.0 mi WNW 3.5 mph - N/A   Clear
3:56 PM 54.0 °F - 10.9 °F 18% 30.21 in 10.0 mi ENE 6.9 mph - N/A   Clear
4:56 PM 51.1 °F - 10.9 °F 20% 30.22 in 10.0 mi ENE 6.9 mph - N/A   Clear
5:56 PM 48.0 °F - 12.0 °F 24% 30.25 in 10.0 mi Calm Calm - N/A   Clear
6:56 PM 44.1 °F 42.5 °F 10.9 °F 26% 30.27 in 10.0 mi North 3.5 mph - N/A   Clear
7:56 PM 39.9 °F 36.7 °F 12.0 °F 32% 30.30 in 10.0 mi NE 4.6 mph - N/A   Clear
8:56 PM 39.9 °F - 12.0 °F 32% 30.31 in 10.0 mi Calm Calm - N/A   Clear
9:56 PM 39.9 °F - 15.1 °F 36% 30.32 in 10.0 mi Calm Calm - N/A   Clear
10:56 PM 39.0 °F - 15.1 °F 38% 30.33 in 10.0 mi Calm Calm - N/A   Clear
11:56 PM 36.0 °F - 15.1 °F 43% 30.23 in 10.0 mi Calm Calm - N/A   Clear